This is the latest recevied weather packets stored in our database for station/object WE0DX-1. If no packets are shown the sender has not sent any weather packets the latest 10 day(s).
| Time | Temp. | Humidity | Pressure | Rain* | Wind** | Luminosity | Snow |
|---|---|---|---|---|---|---|---|
| 1777475519 | 11.67° C | 70% | 1020.1 hPa | 0 mm | - | 590 W/m² | - |
| 1777475216 | 12.22° C | 70% | 1020.2 hPa | 0 mm | - | 536 W/m² | - |
| 1777474911 | 11.67° C | 71% | 1020.5 hPa | 0 mm | - | 470 W/m² | - |
| 1777474607 | 11.11° C | 72% | 1020.3 hPa | 0 mm | - | 513 W/m² | - |
| 1777474304 | 11.11° C | 73% | 1020.4 hPa | 0 mm | - | 472 W/m² | - |
| 1777474000 | 11.67° C | 74% | 1020.7 hPa | 0 mm | - | 460 W/m² | - |
| 1777473699 | 11.67° C | 73% | 1020.6 hPa | 0 mm | - | 420 W/m² | - |
| 1777473394 | 11.67° C | 75% | 1020.4 hPa | 0 mm | - | 410 W/m² | - |
| 1777473090 | 11.11° C | 76% | 1020.6 hPa | 0 mm | - | 384 W/m² | - |
| 1777472787 | 11.11° C | 76% | 1020.4 hPa | 0 mm | - | 370 W/m² | - |
| 1777472484 | 10.56° C | 77% | 1020.6 hPa | 0 mm | - | 357 W/m² | - |
| 1777472181 | 10.56° C | 78% | 1020.4 hPa | 0 mm | - | 312 W/m² | - |
| 1777471881 | 10.56° C | 78% | 1020.6 hPa | 0 mm | - | 302 W/m² | - |
| 1777471578 | 10.56° C | 79% | 1020.6 hPa | 0 mm | - | 287 W/m² | - |
| 1777471275 | 10° C | 80% | 1020.6 hPa | 0 mm | - | 267 W/m² | - |
| 1777470971 | 10° C | 80% | 1020.6 hPa | 0 mm | - | 193 W/m² | - |
| 1777470669 | 9.44° C | 81% | 1020.6 hPa | 0 mm | - | 121 W/m² | - |
| 1777470364 | 9.44° C | 82% | 1020.9 hPa | 0 mm | - | 165 W/m² | - |
| 1777470062 | 8.89° C | 83% | 1020.4 hPa | 0 mm | - | 96 W/m² | - |
| 1777469757 | 8.89° C | 83% | 1020.5 hPa | 0 mm | - | 79 W/m² | - |
| 1777469453 | 8.89° C | 84% | 1020.6 hPa | 0 mm | - | 82 W/m² | - |
| 1777469147 | 8.89° C | 84% | 1020.6 hPa | 0 mm | - | 78 W/m² | - |
| 1777468842 | 8.89° C | 84% | 1020.7 hPa | 0 mm | - | 60 W/m² | - |
| 1777468539 | 8.89° C | 85% | 1020.5 hPa | 0 mm | - | 105 W/m² | - |
| 1777468235 | 8.33° C | 85% | 1020.5 hPa | 0 mm | - | 75 W/m² | - |
* Rain latest hour (hover to see other rain measurements)
** Current wind speed in m/s (hover to see current wind gust speed)